Regional Weather Roundup
Issued by NWS

Home | Current Version | Previous Version | Graphics & Text | Print | Product List | Glossary Off
Versions: 1 2 3 4 5 6 7 8 9 10 11 12 13 14 15 16 17 18 19 20 21 22 23 24 25 26 27 28 29 30 31 32 33 34 35 36 37 38 39 40 41 42 43 44 45 46 47 48 49 50

000
ASUS43 KMKX 292100
RWRWI

WISCONSIN REGIONAL WEATHER ROUNDUP
NATIONAL WEATHER SERVICE MILWAUKEE/SULLIVAN WI
400 PM CDT MON JUN 29 2015

NOTE: "FAIR" INDICATES FEW OR NO CLOUDS BELOW 12,000 FEET WITH NO
SIGNIFICANT WEATHER AND/OR OBSTRUCTIONS TO VISIBILITY.

WIZ001-002-006>008-014>016-023>028-292200-
NORTHWEST WISCONSIN

CITY           SKY/WX    TMP DP  RH WIND       PRES   REMARKS
SUPERIOR ARPT  MOSUNNY   72  64  74 SW5       29.76S
ASHLAND        PTSUNNY   70  64  81 VRB5      29.77S
HAYWARD        CLOUDY    65  60  84 SW3       29.79S
SIREN            N/A    N/A N/A N/A NE7       29.84R
CUMBERLAND     CLOUDY    61  59  94 E3        29.80R FOG
RICE LAKE      TSTM      64  60  88 CALM      29.81F
CHETEK         LGT RAIN  65  62  90 W6        29.81R
LADYSMITH      LGT RAIN  62  59  91 S6        29.81F
EAU CLAIRE     PTSUNNY   63  57  82 E17G31    29.79R
MENOMONIE      MOSUNNY   80  61  51 W14       29.76F HX  81
NEW RICHMOND   MOSUNNY   81  62  52 W14G22    29.78F HX  82
OSCEOLA        MOSUNNY   80  62  54 W10       29.80S HX  82
$$

WIZ003>005-009-010-017-018-292200-
NORTH CENTRAL WISCONSIN

CITY           SKY/WX    TMP DP  RH WIND       PRES   REMARKS
MANITOWISH WTR RAIN      59  59 100 W5        29.80S
ARBOR VITAE    RAIN      62  59  91 NW5       29.80F
WOODRUFF       RAIN      62  59  91 NW5       29.80F
RHINELANDER    TSTM      62  57  83 NW8       29.80R
EAGLE RIVER    CLOUDY    73  56  56 NW12      29.77S
LAND O LAKES   CLOUDY    62  59  89 N7        29.80R
PHILLIPS       CLOUDY    60  58  96 S3        29.80F
TOMAHAWK       RAIN      61  56  83 W8G17     29.80R
MEDFORD        CLOUDY    58  55  91 N10G21    29.82R
MERRILL        PTSUNNY   75  62  62 SW9       29.77F
$$

WIZ029-030-035-036-043>047-292200-
CENTRAL WISCONSIN

CITY           SKY/WX    TMP DP  RH WIND       PRES   REMARKS
WAUSAU         MOSUNNY   76  59  55 W9        29.76S
MOSINEE        PTSUNNY   77  61  57 W9        29.78F
MARSHFIELD     MOSUNNY   76  60  57 NW8       29.79
STEVENS POINT  MOSUNNY   75  58  55 W8        29.78S
WAUPACA        LGT RAIN  71  69  93 S3        29.78S
WAUTOMA        NOT AVBL
WISC RAPIDS    MOSUNNY   79  59  50 NW8       29.78F HX  80
CAMP DOUGLAS   NOT AVBL
$$

WIZ011>013-019>022-031-037>040-048>050-292200-
NORTHEAST WISCONSIN

CITY           SKY/WX    TMP DP  RH WIND       PRES   REMARKS
ANTIGO         MOSUNNY   71  63  74 SE14      29.78F
SHAWANO        RAIN      69  64  82 W10       29.79R
OCONTO         SUNNY     78  59  53 S10       29.76S
STURGEON BAY   SUNNY     75  55  50 S12G18    29.79F
GREEN BAY      PTSUNNY   78  60  53 SW13      29.76F
MANITOWOC      NOT AVBL
APPLETON       PTSUNNY   73  57  56 SW13      29.78F
CLINTONVILLE   LGT RAIN N/A N/A N/A N3        29.78R
OSHKOSH        MOSUNNY   77  62  59 S10       29.77F
$$

WIZ032>034-041-042-053>061-292200-
SOUTHWEST WISCONSIN

CITY           SKY/WX    TMP DP  RH WIND       PRES   REMARKS
LA CROSSE      MOSUNNY   80  62  54 NW6       29.77F HX  81
SPARTA         MOSUNNY   79  59  49 W6        29.79F HX  80
VIROQUA        PTSUNNY   78  60  55 NW5       29.81F
BOSCOBEL       MOSUNNY   82  62  50 NW8       29.78F HX  83
PRAIRIE DU CHI PTSUNNY   80  61  52 NW3       29.79S HX  81
PLATTEVILLE    SUNNY     77  65  67 NW9       29.80F
$$

WIZ056-057-062-063-064-067-068-292200-
SOUTH CENTRAL WISCONSIN

CITY           SKY/WX    TMP DP  RH WIND       PRES   REMARKS
REEDSBURG      PTSUNNY   77  63  62 N6        29.78F
BARABOO/DELLS  MOSUNNY   78  56  46 NW9       29.79S
LONE ROCK      NOT AVBL
MINERAL POINT  MOSUNNY   79  61  53 NW7       29.80F HX  80
MADISON        PTSUNNY   74  63  68 E12       29.78F
MIDDLETON      MOSUNNY   80  58  46 NW3       29.79F HX  81
WATERTOWN      MOSUNNY   73  66  80 S6        29.79F
MONROE         MOSUNNY   77  61  57 NW13      29.79F
JANESVILLE     LGT RAIN  66  63  88 NE13      29.80R
$$

WIZ051-052-058>065-066-070>072-292200-
SOUTHEAST WISCONSIN

CITY           SKY/WX    TMP DP  RH WIND       PRES   REMARKS
MILWAUKEE      PTSUNNY   67  57  70 SE10      29.80F
WAUKESHA       MOSUNNY   66  63  88 S6        29.81F
MILWAUKEE/TIMM NOT AVBL
RACINE         MOSUNNY   69  61  75 S8        29.82F
BURLINGTON     DRIZZLE   68  61  76 CALM      29.80F
KENOSHA        PTSUNNY   70  62  76 SE8       29.80F
FOND DU LAC    MOSUNNY   75  64  68 SW9       29.78F
SHEBOYGAN      SUNNY     75  59  57 SE12      29.79S
WEST BEND      PTSUNNY   73  57  56 SE6       29.79F
JUNEAU         MOSUNNY   72  63  73 S8        29.80F
$$

LSZ147-162-292200-
LAKE SUPERIOR

STATION/POSITION TIME  TEMP    WIND        PRES    WAVE
                       AIR SEA DIR/SP/G            HT/PER
                 (UTC) (F)     (DEG/KT/KT) (MB)    (FT/S)
W MID LAKE BUOY  1950   53 39  320/  6/  8 1007.5R   0
DEVILS ISLAND    2000   62     230/  5/  7 1007.5R
SAXON HARBOR     2000   67      CALM  /  4 1007.5S
$$

LMZ867-665-643>646-292200-
LAKE MICHIGAN

STATION/POSITION TIME  TEMP    WIND        PRES    WAVE
                       AIR SEA DIR/SP/G            HT/PER
                 (UTC) (F)     (DEG/KT/KT) (MB)    (FT/S)
CHAMBERS ISLAND  2000   76     150/  8/ 13 1007.8F
S GREEN BAY BUOY 2000   74 73  220/  6/  6 1009.4F
N MID LAKE BUOY  1950   56 52  200/  8/ 10 1008.5F   0
NORTHPORT PIER   2000   71     150/  8/ 14 1008.1F
ALGOMA LAKESHORE 2010          210/  6/  7   N/A
KEWAUNEE LAKESHO 2000   63     190/  9/ 10 1008.4F
SHEBOYGAN LAKESH 2000   61     150/  8/  9 1009.3F
PORT WASHINGTON  2000   65     140/  6/  7 1010.2F
ATWATER BUOY     2000   62 62  140/  6/  8 1011.0F
MILWAUKEE LAKESH 2000   62     100/  4/  4   N/A
KENOSHA   LAKESH 2000   66     140/  6/  6 1009.5F
$$

TC  - TEMPERATURE IN CELSIUS
VSB - VISIBILITY IN STATUTE MILES
WCI - WIND CHILL INDEX
HX  - HEAT INDEX



USA.gov is the U.S. government's official web portal to all federal, state and local government web resources and services.